{"data":{"norad_id":66156,"epoch":"2026-09-20T11:01:42.134016Z","epoch_age_seconds":103926,"freshness":"FRESH","line1":"1 66156U 25240L   26263.45951544  .00011401  00000+0  34803-3 0  9990","line2":"2 66156  53.1579 235.6436 0001462  92.7219 267.3951 15.34403018 51837","mean_motion":15.34403018,"eccentricity":0.0001462,"inclination_deg":53.1579,"raan_deg":235.6436,"arg_perigee_deg":92.7219,"mean_anomaly_deg":267.3951,"bstar":0.00034803,"rev_number":5183,"period_min":93.847573493237,"perigee_km":461.69414055811,"apogee_km":463.69439962148,"semimajor_km":6840.8312700898,"source":"CELESTRAK","updated_at":"2026-09-21T09:00:35.814210Z"}}